| time (UTC) | temp F | wind direction | speed knots | gust knots | rain 1hr in | rain 24hr in | rain mn in | humidity % | barometer mb |
| 20260504050004 | 64 | 5.2 | 18.2 | 0.00 | 0.00 | 0.00 | 65 | 1006.6 | |
| 20260504044504 | 64 | 7.8 | 14.8 | 0.00 | 0.00 | 0.00 | 64 | 1006.6 | |
| 20260504043001 | 64 | 7.0 | 17.4 | 0.00 | 0.00 | 0.00 | 64 | 1006.6 | |
| 20260504041600 | 64 | 6.1 | 14.8 | 0.00 | 0.00 | 0.00 | 64 | 1006.5 | |
| 20260504040105 | 65 | 3.5 | 13.0 | 0.00 | 0.00 | 0.00 | 63 | 1006.5 | |
| 20260504034555 | 65 | 7.0 | 13.9 | 0.00 | 0.00 | 0.00 | 65 | 1006.6 | |
| 20260504033052 | 65 | 7.0 | 14.8 | 0.00 | 0.00 | 0.00 | 64 | 1006.7 | |
| 20260504031617 | 64 | 9.6 | 18.2 | 0.00 | 0.00 | 0.00 | 63 | 1006.9 | |
| 20260504030048 | 64 | 7.8 | 16.5 | 0.00 | 0.00 | 0.00 | 64 | 1007.2 | |
| 20260504024545 | 63 | 6.1 | 11.3 | 0.00 | 0.01 | 0.00 | 66 | 1007.4 | |
| 20260504023041 | 61 | 7.8 | 15.6 | 0.00 | 0.01 | 0.00 | 67 | 1007.5 | |
| 20260504021539 | 61 | 4.3 | 15.6 | 0.00 | 0.01 | 0.00 | 69 | 1007.8 | |
| 20260504020040 | 61 | 4.3 | 17.4 | 0.00 | 0.01 | 0.00 | 69 | 1008.0 | |
| 20260504014537 | 62 | 7.0 | 15.6 | 0.00 | 0.24 | 0.00 | 68 | 1008.2 | |
| 20260504013037 | 61 | 7.0 | 14.8 | 0.00 | 0.24 | 0.00 | 67 | 1008.1 | |
| 20260504011535 | 62 | 7.0 | 14.8 | 0.00 | 0.24 | 0.00 | 67 | 1008.2 | |
| 20260504010041 | 63 | 5.2 | 8.7 | 0.00 | 0.24 | 0.00 | 65 | 1008.3 | |
| 20260504004533 | 63 | 3.5 | 9.6 | 0.00 | 0.30 | 0.00 | 65 | 1008.3 | |
| 20260504003030 | 62 | 3.5 | 8.7 | 0.00 | 0.30 | 0.00 | 65 | 1008.4 | |
| 20260504001527 | 61 | 4.3 | 11.3 | 0.00 | 0.30 | 0.00 | 67 | 1008.6 | |
| 20260504000025 | 61 | 3.5 | 8.7 | 0.00 | 0.30 | 0.00 | 68 | 1008.7 | |
| 20260503234527 | 61 | 1.7 | 8.7 | 0.00 | 0.34 | 0.00 | 70 | 1008.8 | |
| 20260503233019 | 59 | 5.2 | 12.2 | 0.00 | 0.34 | 0.00 | 72 | 1008.9 | |
| 20260503231519 | 58 | 0.9 | 2.6 | 0.00 | 0.34 | 0.00 | 74 | 1008.9 | |
| 20260503230019 | 58 | 0.0 | 4.3 | 0.00 | 0.34 | 0.00 | 75 | 1008.9 | |
| 20260503224511 | 56 | 0.9 | 3.5 | 0.00 | 0.34 | 0.00 | 79 | 1008.9 | |
| 20260503223010 | 54 | 0.0 | 1.7 | 0.00 | 0.34 | 0.00 | 82 | 1009.1 | |
| 20260503221504 | 52 | 0.0 | 1.7 | 0.00 | 0.34 | 0.00 | 84 | 1009.1 | |
| 20260503220004 | 51 | 0.0 | 1.7 | 0.00 | 0.34 | 0.00 | 85 | 1009.1 | |
| 20260503214503 | 50 | 0.0 | 1.7 | 0.00 | 0.34 | 0.00 | 86 | 1009.0 | |
| 20260503213002 | 50 | 0.0 | 1.7 | 0.00 | 0.34 | 0.00 | 86 | 1009.2 | |
| 20260503211502 | 50 | 0.0 | 2.6 | 0.00 | 0.34 | 0.00 | 85 | 1009.1 | |
| 20260503210001 | 51 | 0.0 | 0.9 | 0.00 | 0.34 | 0.00 | 84 | 1009.1 | |
| 20260503204621 | 50 | 0.0 | 0.9 | 0.00 | 0.34 | 0.00 | 83 | 1009.1 | |
| 20260503203114 | 50 | 0.0 | 2.6 | 0.00 | 0.34 | 0.00 | 83 | 1008.8 | |
| 20260503201559 | 50 | 0.0 | 0.0 | 0.00 | 0.34 | 0.00 | 82 | 1008.7 | |
| 20260503200059 | 52 | 0.0 | 1.7 | 0.00 | 0.34 | 0.00 | 80 | 1008.8 | |
| 20260503194556 | 52 | 0.0 | 1.7 | 0.00 | 0.34 | 0.00 | 80 | 1008.7 | |
| 20260503193055 | 51 | 0.0 | 5.2 | 0.00 | 0.34 | 0.00 | 84 | 1008.7 | |
| 20260503191603 | 48 | 0.9 | 2.6 | 0.00 | 0.34 | 0.00 | 87 | 1008.9 | |
| 20260503190051 | 49 | 0.0 | 0.9 | 0.00 | 0.34 | 0.00 | 85 | 1009.0 | |
| 20260503184604 | 51 | 0.0 | 0.9 | 0.00 | 0.34 | 0.00 | 80 | 1009.2 | |
| 20260503183047 | 52 | 0.0 | 1.7 | 0.00 | 0.34 | 0.00 | 79 | 1009.2 | |
| 20260503181544 | 52 | 0.0 | 0.9 | 0.00 | 0.34 | 0.00 | 79 | 1009.2 | |
| 20260503180043 | 52 | 0.0 | 0.9 | 0.00 | 0.34 | 0.00 | 79 | 1009.3 | |
| 20260503174553 | 52 | 0.0 | 1.7 | 0.00 | 0.34 | 0.00 | 80 | 1009.5 | |
| 20260503173040 | 52 | 0.0 | 1.7 | 0.00 | 0.34 | 0.00 | 80 | 1009.5 | |
| 20260503171539 | 51 | 0.0 | 1.7 | 0.00 | 0.34 | 0.00 | 81 | 1009.6 | |
| 20260503100108 | 55 | 0.0 | 0.0 | 0.00 | 0.34 | 0.34 | 84 | 1010.7 | |
| 20260503090104 | 56 | 0.0 | 0.9 | 0.00 | 0.34 | 0.34 | 82 | 1010.3 | |
| 20260503081557 | 58 | 0.0 | 0.9 | 0.00 | 0.34 | 0.34 | 77 | 1009.2 | |
| 20260503071606 | 62 | 0.0 | 4.3 | 0.00 | 0.34 | 0.34 | 69 | 1008.7 | |
| 20260503054555 | 65 | 5.2 | 11.3 | 0.00 | 0.34 | 0.34 | 63 | 1008.8 | |
| 20260503053042 | 66 | 3.5 | 9.6 | 0.00 | 0.34 | 0.34 | 63 | 1008.7 | |
| 20260503051548 | 66 | 3.5 | 8.7 | 0.00 | 0.34 | 0.34 | 64 | 1008.7 |